Home   Weather   Finnsnes   Past weeks
Flag for Norway

Past Weather in Finnsnes, Norway — Yesterday and Last 2 Weeks

Now
29 °F

Chilly.


Feels Like: 29 °F
Forecast: 33 / 25 °F
Wind: 1 mph from West

Location: Kongsoya

Current Time: Oct 17, 2019 at 1:18:35 pm

Latest Report: Oct 17, 2019 at 12:00 pm


Visibility: N/A

Pressure: 29.68 "Hg

Humidity: 100%

Dew Point: 29 °F

Location of FinnsnesLocation

Past Weather in Finnsnes — Graph

°F

Finnsnes Temperature Yesterday

Maximum temperature yesterday: 30 °F (at 8:00 pm)
Minimum temperature yesterday: 28 °F (at 2:00 pm)
Average temperature yesterday: 29 °F

High & Low Weather Summary for the Past Weeks

 TemperatureHumidityPressure
High33 °F (Oct 6, 2:00 pm)100% (Oct 2, 12:00 pm)30.20 "Hg (Oct 2, 12:00 pm)
Low16 °F (Oct 14, 2:00 pm)74% (Oct 13, 10:00 am)29.41 "Hg (Oct 12, 12:00 am)
Average28 °F95%29.94 "Hg
* Reported Oct 2 11:00 am — Oct 17 11:00 am, Finnsnes. Weather by CustomWeather, © 2019

Note: Actual official high and low records may vary slightly from our data, if they occured in-between our weather recording intervals... More about our weather records

Advertising

Finnsnes Weather History for the Previous 24 Hours

Scroll right to see more
 ConditionsComfort  
Time TempWeatherWind HumidityBarometerVisibility
11:00 am
Thu, Oct 17
29 °FChilly.2 mph100%29.70 "HgN/A
10:00 am29 °FChilly.1 mph100%29.70 "HgN/A
9:00 am28 °FChilly.5 mph100%29.71 "HgN/A
8:00 am29 °FChilly.3 mph100%29.71 "HgN/A
7:00 am28 °FChilly.6 mph100%29.73 "HgN/A
6:00 am28 °FChilly.7 mph100%29.74 "HgN/A
5:00 am29 °FChilly.8 mph100%29.75 "HgN/A
4:00 am29 °FChilly.7 mph100%29.76 "HgN/A
3:00 am29 °FChilly.8 mph100%29.77 "HgN/A
2:00 am29 °FChilly.9 mph100%29.78 "HgN/A
1:00 am30 °FChilly.9 mph100%29.79 "HgN/A
12:00 am30 °FChilly.10 mph100%29.82 "HgN/A
11:00 pm
Wed, Oct 16
30 °FChilly.8 mph100%29.83 "HgN/A
10:00 pm30 °FChilly.9 mph100%29.84 "HgN/A
9:00 pm30 °FChilly.12 mph100%29.84 "HgN/A
8:00 pm30 °FChilly.9 mph100%29.85 "HgN/A
7:00 pm30 °FChilly.7 mph100%29.87 "HgN/A
6:00 pm29 °FChilly.7 mph100%29.89 "HgN/A
5:00 pm29 °FChilly.8 mph100%29.91 "HgN/A
4:00 pm29 °FChilly.8 mph100%29.92 "HgN/A
3:00 pm28 °FChilly.8 mph100%29.94 "HgN/A
2:00 pm28 °FChilly.9 mph100%29.95 "HgN/A
1:00 pm29 °FChilly.9 mph100%29.96 "HgN/A
Weather by CustomWeather, © 2019

See weather overview